OP2 (TYVAK-0821) (52735 NORAD) Tracking and Keplerian Element Data

This shows tracking and keplerian element data for the satellite.

Feedback or suggestion? Click here.




ElementValue
Catalog52735
NameOP2 (TYVAK-0821)
Epoch Orbit712
Epoch Day192.87405535
Epoch Year2022
RAAN307.141
Inclination97.5171
Eccentricity0.0010555
Argument of Perigee96.6745
Mean Anonmoly263.5687
Mean Motion15.12113698
Decay Rate7.338E-05
L11 52735U 22057D 22192.87405535 .00007338 00000+0 42911-3 0 9991
L22 52735 97.5171 307.1410 0010555 96.6745 263.5687 15.12113698 7127

Live tracking and technical data element details for OP2 (TYVAK-0821) (NORAD 52735). OP2 (TYVAK-0821) can be tracked NOW for your location showing map with azimuth and elevation plus other details from your city location.

Track the satellite on the map from your city or location and see movement details for azimuth, elevation, latitude, longitude, range, height, and movement on the map or in text.







IsCatalogInMostPopularTable: catalog: 52735, numindb: 5
Update: records affected: 1



GetName: 52735 OP2 (TYVAK-0821)

Hit Count: updated at: Sun, 14 Aug 2022 01:00:02 GMT